• In Belarus
  • List of Countries
  • For 7 days
  • Water Temperature
  • Satellite Maps
  • Weather Map
  • Weather Widgets
  • user-avatar
    Login

    Hourly Weather Uzwil

    Today, 11 December, Monday

    Time Temperature Precipitation Wind Pressure Humidity
    00:00 +1°C° 0.7 mm 3 mps 691 mmHg 86%
    01:00 +1°C° 0 mm 3 mps 690 mmHg 84%
    02:00 +1°C° 0.2 mm 3 mps 690 mmHg 84%
    03:00 +2°C° 0.2 mm 3 mps 690 mmHg 84%
    04:00 +2°C° 0.2 mm 3 mps 689 mmHg 84%
    05:00 +2°C° 0.1 mm 3 mps 688 mmHg 83%
    06:00 +2°C° 0.1 mm 3 mps 688 mmHg 83%
    07:00 +3°C° 0 mm 3 mps 688 mmHg 81%
    08:00 +3°C° 0.1 mm 3 mps 687 mmHg 83%
    09:00 +3°C° 0.1 mm 3 mps 687 mmHg 84%
    10:00 +4°C° 0.1 mm 2 mps 686 mmHg 85%
    11:00 +5°C° 0.1 mm 2 mps 686 mmHg 85%
    12:00 +5°C° 0.1 mm 2 mps 686 mmHg 85%
    13:00 +6°C° 0.1 mm 2 mps 686 mmHg 86%
    14:00 +5°C° 0 mm 2 mps 686 mmHg 86%
    15:00 +5°C° 0 mm 2 mps 687 mmHg 86%
    16:00 +5°C° 0 mm 2 mps 687 mmHg 87%
    17:00 +4°C° 0.4 mm 2 mps 687 mmHg 89%
    18:00 +4°C° 0.4 mm 2 mps 688 mmHg 90%
    19:00 +4°C° 0.4 mm 2 mps 689 mmHg 92%
    20:00 +3°C° 1.2 mm 3 mps 689 mmHg 92%
    21:00 +3°C° 1.2 mm 3 mps 690 mmHg 92%
    22:00 +3°C° 1.2 mm 3 mps 690 mmHg 91%
    23:00 +2°C° 0.9 mm 3 mps 691 mmHg 91%

    Tomorrow, 12 December, Tuesday

    Time Temperature Precipitation Wind Pressure Humidity
    00:00 +2°C° 0.9 mm 3 mps 691 mmHg 90%
    01:00 +2°C° 0.9 mm 3 mps 692 mmHg 90%
    02:00 +2°C° 0.6 mm 3 mps 693 mmHg 90%
    03:00 +1°C° 0.6 mm 4 mps 694 mmHg 90%
    04:00 0°C° 0.6 mm 4 mps 695 mmHg 89%
    05:00 0°C° 0.5 mm 4 mps 696 mmHg 90%
    06:00 -1°C° 0.5 mm 4 mps 697 mmHg 90%
    07:00 -1°C° 0.5 mm 4 mps 698 mmHg 90%
    08:00 -1°C° 0.4 mm 4 mps 700 mmHg 90%
    09:00 -1°C° 0.4 mm 4 mps 701 mmHg 90%
    10:00 -1°C° 0.4 mm 4 mps 702 mmHg 89%
    11:00 -1°C° 0.5 mm 4 mps 703 mmHg 89%
    12:00 0°C° 0.5 mm 3 mps 703 mmHg 89%
    13:00 0°C° 0.5 mm 3 mps 704 mmHg 88%
    14:00 0°C° 0.5 mm 3 mps 705 mmHg 89%
    15:00 0°C° 0.5 mm 3 mps 705 mmHg 90%
    16:00 -1°C° 0.5 mm 2 mps 706 mmHg 91%
    17:00 -1°C° 0.2 mm 2 mps 707 mmHg 92%
    18:00 -2°C° 0.2 mm 2 mps 707 mmHg 93%
    19:00 -3°C° 0.2 mm 2 mps 708 mmHg 94%
    20:00 -3°C° 0.1 mm 2 mps 709 mmHg 94%
    21:00 -3°C° 0.1 mm 2 mps 710 mmHg 94%
    22:00 -4°C° 0.1 mm 2 mps 710 mmHg 94%
    23:00 -4°C° 0 mm 2 mps 711 mmHg 93%

    Day after tomorrow, 13 December, Wednesday

    Time Temperature Precipitation Wind Pressure Humidity
    00:00 -5°C° 0 mm 2 mps 711 mmHg 92%
    01:00 -5°C° 0 mm 2 mps 711 mmHg 91%
    02:00 -6°C° 0 mm 2 mps 711 mmHg 89%
    03:00 -6°C° 0 mm 2 mps 711 mmHg 86%
    04:00 -7°C° 0 mm 2 mps 711 mmHg 84%
    05:00 -7°C° 0 mm 2 mps 711 mmHg 81%
    06:00 -7°C° 0 mm 2 mps 711 mmHg 78%
    07:00 -7°C° 0 mm 2 mps 711 mmHg 75%
    08:00 -7°C° 0 mm 3 mps 711 mmHg 72%
    09:00 -6°C° 0 mm 3 mps 710 mmHg 69%
    10:00 -4°C° 0 mm 3 mps 710 mmHg 66%
    11:00 -2°C° 0 mm 3 mps 709 mmHg 65%
    12:00 0°C° 0 mm 3 mps 708 mmHg 63%
    13:00 +3°C° 0 mm 2 mps 707 mmHg 62%
    14:00 +2°C° 0.1 mm 2 mps 707 mmHg 65%
    15:00 +2°C° 0.1 mm 2 mps 706 mmHg 69%
    16:00 +2°C° 0.1 mm 2 mps 706 mmHg 72%
    17:00 +1°C° 0.2 mm 3 mps 706 mmHg 74%
    18:00 +1°C° 0.2 mm 3 mps 706 mmHg 76%
    19:00 +1°C° 0.2 mm 3 mps 706 mmHg 78%
    20:00 +1°C° 0.2 mm 3 mps 705 mmHg 78%
    21:00 0°C° 0.2 mm 3 mps 705 mmHg 78%
    22:00 -1°C° 0.2 mm 4 mps 704 mmHg 79%
    23:00 0°C° 0.5 mm 4 mps 704 mmHg 79%

    14 December, Thursday

    Time Temperature Precipitation Wind Pressure Humidity
    00:00 0°C° 0.5 mm 4 mps 703 mmHg 80%
    01:00 0°C° 0.5 mm 4 mps 703 mmHg 81%
    02:00 0°C° 0.5 mm 4 mps 702 mmHg 82%
    03:00 +1°C° 0.5 mm 4 mps 702 mmHg 83%
    04:00 +1°C° 0.5 mm 4 mps 701 mmHg 85%
    05:00 +1°C° 0.2 mm 4 mps 701 mmHg 86%
    06:00 +3°C° 0.2 mm 4 mps 701 mmHg 87%
    07:00 +3°C° 0.2 mm 4 mps 701 mmHg 89%
    08:00 +3°C° 0.3 mm 4 mps 701 mmHg 89%
    09:00 +3°C° 0.3 mm 4 mps 701 mmHg 90%
    10:00 +3°C° 0.3 mm 4 mps 701 mmHg 90%
    11:00 +4°C° 0.1 mm 4 mps 700 mmHg 89%
    12:00 +3°C° 0.1 mm 5 mps 700 mmHg 88%
    13:00 +5°C° 0.1 mm 5 mps 699 mmHg 87%
    14:00 +5°C° 0.1 mm 5 mps 698 mmHg 86%
    15:00 +3°C° 0.1 mm 5 mps 698 mmHg 86%
    16:00 +3°C° 0.1 mm 6 mps 697 mmHg 85%
    17:00 +3°C° 0.8 mm 6 mps 697 mmHg 85%
    18:00 +3°C° 0.8 mm 5 mps 697 mmHg 86%
    19:00 +2°C° 0.8 mm 5 mps 697 mmHg 86%
    20:00 +2°C° 2.4 mm 5 mps 698 mmHg 87%
    21:00 +1°C° 2.4 mm 4 mps 698 mmHg 89%
    22:00 +1°C° 2.4 mm 4 mps 698 mmHg 90%
    23:00 +1°C° 1.6 mm 4 mps 698 mmHg 91%

    15 December, Friday

    Time Temperature Precipitation Wind Pressure Humidity
    00:00 +2°C° 1.6 mm 3 mps 698 mmHg 92%
    01:00 +1°C° 1.6 mm 3 mps 698 mmHg 93%
    02:00 +1°C° 1.4 mm 3 mps 698 mmHg 93%
    03:00 +1°C° 1.4 mm 3 mps 698 mmHg 93%
    04:00 +1°C° 1.4 mm 3 mps 698 mmHg 93%
    05:00 0°C° 0.7 mm 3 mps 698 mmHg 93%
    06:00 0°C° 0.7 mm 3 mps 698 mmHg 93%
    07:00 0°C° 0.7 mm 3 mps 698 mmHg 92%
    08:00 0°C° 0.2 mm 3 mps 698 mmHg 91%
    09:00 0°C° 0.2 mm 3 mps 699 mmHg 90%
    10:00 0°C° 0.2 mm 3 mps 699 mmHg 89%
    11:00 -1°C° 0 mm 4 mps 699 mmHg 86%
    12:00 0°C° 0 mm 4 mps 698 mmHg 84%
    13:00 0°C° 0 mm 5 mps 698 mmHg 82%
    14:00 -1°C° 0 mm 4 mps 698 mmHg 83%
    15:00 0°C° 0 mm 3 mps 698 mmHg 84%
    16:00 -1°C° 0 mm 3 mps 698 mmHg 86%
    17:00 -1°C° 0.3 mm 3 mps 699 mmHg 87%
    18:00 -1°C° 0.3 mm 3 mps 699 mmHg 88%
    19:00 -2°C° 0.3 mm 4 mps 700 mmHg 90%
    20:00 -2°C° 0.5 mm 4 mps 701 mmHg 90%
    21:00 -2°C° 0.5 mm 4 mps 701 mmHg 90%
    22:00 -2°C° 0.5 mm 5 mps 702 mmHg 90%
    23:00 -3°C° 0.3 mm 4 mps 702 mmHg 90%

    16 December, Saturday

    Time Temperature Precipitation Wind Pressure Humidity
    00:00 -3°C° 0.3 mm 4 mps 703 mmHg 91%
    01:00 -4°C° 0.3 mm 4 mps 703 mmHg 92%
    02:00 -4°C° 0.4 mm 4 mps 704 mmHg 92%
    03:00 -4°C° 0.4 mm 4 mps 704 mmHg 91%
    04:00 -4°C° 0.4 mm 4 mps 705 mmHg 91%
    05:00 -4°C° 0.3 mm 4 mps 705 mmHg 91%
    06:00 -4°C° 0.3 mm 4 mps 706 mmHg 92%
    07:00 -4°C° 0.3 mm 4 mps 706 mmHg 92%
    08:00 -3°C° 0.2 mm 4 mps 707 mmHg 91%
    09:00 -3°C° 0.2 mm 4 mps 707 mmHg 89%
    10:00 -3°C° 0.2 mm 4 mps 708 mmHg 88%
    11:00 -2°C° 0.1 mm 4 mps 708 mmHg 87%
    12:00 -2°C° 0.1 mm 4 mps 708 mmHg 86%
    13:00 0°C° 0.1 mm 3 mps 708 mmHg 84%
    14:00 -1°C° 0.2 mm 3 mps 708 mmHg 86%
    15:00 -1°C° 0.2 mm 3 mps 708 mmHg 88%
    16:00 -2°C° 0.2 mm 3 mps 708 mmHg 89%
    17:00 -2°C° 0.1 mm 3 mps 709 mmHg 90%
    18:00 -4°C° 0.1 mm 3 mps 709 mmHg 90%
    19:00 -4°C° 0.1 mm 3 mps 710 mmHg 90%
    20:00 -5°C° 0.1 mm 3 mps 710 mmHg 89%
    21:00 -5°C° 0.1 mm 3 mps 710 mmHg 88%
    22:00 -6°C° 0.1 mm 3 mps 710 mmHg 87%
    23:00 -6°C° 0 mm 3 mps 710 mmHg 87%
    Show more